TimeMST,TemperatureF,Dew PointF,Humidity,Sea Level PressureIn,VisibilityMPH,Wind Direction,Wind SpeedMPH,Gust SpeedMPH,PrecipitationIn,Events,Conditions,WindDirDegrees,DateUTC
12:54 AM,26.1,10.9,53,30.18,10.0,Calm,Calm,-,N/A,,Clear,0,2013-11-08 07:54:00
1:54 AM,24.1,10.9,57,30.19,10.0,Calm,Calm,-,N/A,,Clear,0,2013-11-08 08:54:00
2:54 AM,21.9,10.0,60,30.18,10.0,Calm,Calm,-,N/A,,Clear,0,2013-11-08 09:54:00
3:54 AM,21.0,10.0,63,30.19,10.0,Calm,Calm,-,N/A,,Clear,0,2013-11-08 10:54:00
4:54 AM,19.0,9.0,65,30.23,10.0,Calm,Calm,-,N/A,,Clear,0,2013-11-08 11:54:00
5:54 AM,17.1,8.1,68,30.27,10.0,Calm,Calm,-,N/A,,Clear,0,2013-11-08 12:54:00
6:54 AM,18.0,8.1,65,30.29,10.0,Calm,Calm,-,N/A,,Clear,0,2013-11-08 13:54:00
7:54 AM,25.0,9.0,51,30.29,10.0,NE,3.5,-,N/A,,Clear,50,2013-11-08 14:54:00
8:54 AM,42.1,12.0,29,30.25,10.0,Calm,Calm,-,N/A,,Clear,0,2013-11-08 15:54:00
9:54 AM,54.0,9.0,17,30.19,10.0,WSW,8.1,-,N/A,,Clear,240,2013-11-08 16:54:00
10:54 AM,55.9,10.9,17,30.19,10.0,SSW,8.1,-,N/A,,Clear,200,2013-11-08 17:54:00
11:54 AM,59.0,10.9,15,30.15,10.0,SSW,6.9,-,N/A,,Clear,200,2013-11-08 18:54:00
12:54 PM,61.0,8.1,12,30.10,10.0,WSW,8.1,-,N/A,,Clear,250,2013-11-08 19:54:00
1:54 PM,61.0,10.9,14,30.09,10.0,WSW,13.8,18.4,N/A,,Clear,250,2013-11-08 20:54:00
2:54 PM,62.1,10.9,13,30.08,10.0,West,8.1,-,N/A,,Clear,260,2013-11-08 21:54:00
3:54 PM,62.1,9.0,12,30.07,10.0,WSW,9.2,-,N/A,,Clear,250,2013-11-08 22:54:00
4:54 PM,59.0,7.0,13,30.10,10.0,West,6.9,-,N/A,,Clear,260,2013-11-08 23:54:00
5:54 PM,39.9,10.0,29,30.19,10.0,Calm,Calm,-,N/A,,Clear,0,2013-11-09 00:54:00
6:54 PM,32.0,10.0,40,30.25,10.0,Calm,Calm,-,N/A,,Clear,0,2013-11-09 01:54:00
7:54 PM,28.9,9.0,43,30.24,10.0,Calm,Calm,-,N/A,,Clear,0,2013-11-09 02:54:00
8:54 PM,26.1,8.1,47,30.17,10.0,Calm,Calm,-,N/A,,Clear,0,2013-11-09 03:54:00
9:54 PM,25.0,7.0,46,30.14,9.0,Calm,Calm,-,N/A,,Clear,0,2013-11-09 04:54:00
10:54 PM,23.0,7.0,50,30.15,10.0,Calm,Calm,-,N/A,,Clear,0,2013-11-09 05:54:00
11:54 PM,24.1,7.0,48,30.13,10.0,Calm,Calm,-,N/A,,Clear,0,2013-11-09 06:54:00